Regional Weather Roundup
Issued by NWS

Home | Current Version | Previous Version | Graphics & Text | Print | Product List | Glossary On
Versions: 1 2 3 4 5 6 7 8 9 10 11 12 13 14 15 16 17 18 19 20 21 22 23 24 25 26 27 28 29 30 31 32 33 34 35 36 37 38 39 40 41 42 43 44 45 46 47 48 49 50
000
ASUS43 KLMK 231410
RWRKY
KENTUCKY REGIONAL WEATHER ROUNDUP
NATIONAL WEATHER SERVICE LOUISVILLE KY
1000 AM EDT WED APR 23 2014

NOTE "FAIR" INDICATES FEW OR NO CLOUDS BELOW 12,000 FEET
WITH NO SIGNIFICANT WEATHER AND/OR OBSTRUCTIONS TO VISIBILITY.

KYZ001>023-026-027-061>063-070>075-231500-
WESTERN AND SOUTH CENTRAL KENTUCKY

CITY           SKY/WX    TMP DP  RH WIND       PRES   REMARKS
PADUCAH        SUNNY     57  38  48 E14       30.10R
HENDERSON      SUNNY     50  34  53 NE10      30.13R
OWENSBORO      SUNNY     51  31  46 NE12      30.13R
HOPKINSVILLE   SUNNY     54  35  48 E12       30.10R
BOWLING GREEN  SUNNY     54  34  46 NE9       30.11R
GLASGOW        SUNNY     52  33  47 NE5       30.10R
$$

KYZ024-025-028>034-038-045-046-053-231500-
NORTH CENTRAL KENTUCKY

CITY           SKY/WX    TMP DP  RH WIND       PRES   REMARKS
LOUISVILLE/SDF SUNNY     49  31  49 N9        30.12R
LOUISVILLE/LOU SUNNY     50  30  46 N8        30.12R
FORT KNOX      SUNNY     51  28  42 N12       30.09R
$$

KYZ035>037-039>044-047>052-055>060-089>105-231500-
NORTHEAST KENTUCKY

CITY           SKY/WX    TMP DP  RH WIND       PRES   REMARKS
LEXINGTON      SUNNY     48  32  53 NE9       30.09R
COVINGTON      SUNNY     45  30  55 N7        30.09R
FRANKFORT      SUNNY     47  32  56 N7        30.09R
$$

KYZ054-064>069-076>088-106>120-231500-
SOUTHEAST KENTUCKY

CITY           SKY/WX    TMP DP  RH WIND       PRES   REMARKS
JACKSON        SUNNY     48  28  46 MISG      30.06R
LONDON         SUNNY     51  29  42 NE8       30.07R
SOMERSET       SUNNY     50  32  50 NE8       30.10R
MIDDLESBORO    SUNNY     53  29  40 N6        30.05F
MONTICELLO     SUNNY     51  33  50 NE8       30.10R
$$




USA.gov is the U.S. government's official web portal to all federal, state and local government web resources and services.